Year,Month,Day,Hour,Minute,Value (Times are PST for temperature in C)
2019,10,11,00,00,4.40
2019,10,11,00,01,4.30
2019,10,11,00,02,4.30
2019,10,11,00,03,4.20
2019,10,11,00,04,4.20
2019,10,11,00,05,4.10
2019,10,11,00,06,4.10
2019,10,11,00,07,4.10
2019,10,11,00,08,4.00
2019,10,11,00,09,4.00
2019,10,11,00,10,3.90
2019,10,11,00,11,3.90
2019,10,11,00,12,3.90
2019,10,11,00,13,3.80
2019,10,11,00,14,3.80
2019,10,11,00,15,3.80
2019,10,11,00,16,3.80
2019,10,11,00,17,3.90
2019,10,11,00,18,4.00
2019,10,11,00,19,4.10
2019,10,11,00,20,4.30
2019,10,11,00,21,4.40
2019,10,11,00,22,4.50
2019,10,11,00,23,4.70
2019,10,11,00,24,4.80
2019,10,11,00,25,4.80
2019,10,11,00,26,4.90
2019,10,11,00,27,4.90
2019,10,11,00,28,4.90
2019,10,11,00,29,5.00
2019,10,11,00,30,5.00
2019,10,11,00,31,5.00
2019,10,11,00,32,5.00
2019,10,11,00,33,5.00
2019,10,11,00,34,5.00
2019,10,11,00,35,4.90
2019,10,11,00,36,4.90
2019,10,11,00,37,4.90
2019,10,11,00,38,4.90
2019,10,11,00,39,4.90
2019,10,11,00,40,4.80
2019,10,11,00,41,4.90
2019,10,11,00,42,5.00
2019,10,11,00,43,5.00
2019,10,11,00,44,5.10
2019,10,11,00,45,5.10
2019,10,11,00,46,5.20
2019,10,11,00,47,5.20
2019,10,11,00,48,5.20
2019,10,11,00,49,5.20
2019,10,11,00,50,5.20
2019,10,11,00,51,5.20
2019,10,11,00,52,5.20
2019,10,11,00,53,5.10
2019,10,11,00,54,5.10
2019,10,11,00,55,5.10
2019,10,11,00,56,5.10
2019,10,11,00,57,5.10
2019,10,11,00,58,5.10
2019,10,11,00,59,5.10
2019,10,11,01,00,5.20
2019,10,11,01,01,5.20
2019,10,11,01,02,5.20
2019,10,11,01,03,5.30
2019,10,11,01,04,5.30
2019,10,11,01,05,5.30
2019,10,11,01,06,5.30
2019,10,11,01,07,5.30
2019,10,11,01,08,5.30
2019,10,11,01,09,5.30
2019,10,11,01,10,5.20
2019,10,11,01,11,5.20
2019,10,11,01,12,5.20
2019,10,11,01,13,5.20
2019,10,11,01,14,5.20
2019,10,11,01,15,5.20
2019,10,11,01,16,5.20
2019,10,11,01,17,5.20
2019,10,11,01,18,5.20
2019,10,11,01,19,5.20
2019,10,11,01,20,5.30
2019,10,11,01,21,5.30
2019,10,11,01,22,5.30
2019,10,11,01,23,5.30
2019,10,11,01,24,5.30
2019,10,11,01,25,5.30
2019,10,11,01,26,5.30
2019,10,11,01,27,5.30
2019,10,11,01,28,5.20
2019,10,11,01,29,5.20
2019,10,11,01,30,5.20
2019,10,11,01,31,5.20
2019,10,11,01,32,5.20
2019,10,11,01,33,5.20
2019,10,11,01,34,5.20
2019,10,11,01,35,5.20
2019,10,11,01,36,5.20
2019,10,11,01,37,5.20
2019,10,11,01,38,5.20
2019,10,11,01,39,5.30
2019,10,11,01,40,5.30
2019,10,11,01,41,5.30
2019,10,11,01,42,5.30
2019,10,11,01,43,5.30
2019,10,11,01,44,5.30
2019,10,11,01,45,5.30
2019,10,11,01,46,5.20
2019,10,11,01,47,5.20
2019,10,11,01,48,5.20
2019,10,11,01,49,5.10
2019,10,11,01,50,5.10
2019,10,11,01,51,5.10
2019,10,11,01,52,5.10
2019,10,11,01,53,5.10
2019,10,11,01,54,5.00
2019,10,11,01,55,5.00
2019,10,11,01,56,5.00
2019,10,11,01,57,5.00
2019,10,11,01,58,4.90
2019,10,11,01,59,4.90
2019,10,11,02,00,4.80
2019,10,11,02,01,4.80
2019,10,11,02,02,4.70
2019,10,11,02,03,4.70
2019,10,11,02,04,4.70
2019,10,11,02,05,4.70
2019,10,11,02,06,4.60
2019,10,11,02,07,4.60
2019,10,11,02,08,4.60
2019,10,11,02,09,4.60
2019,10,11,02,10,4.60
2019,10,11,02,11,4.60
2019,10,11,02,12,4.50
2019,10,11,02,13,4.50
2019,10,11,02,14,4.50
2019,10,11,02,15,4.40
2019,10,11,02,16,4.40
2019,10,11,02,17,4.40
2019,10,11,02,18,4.40
2019,10,11,02,19,4.30
2019,10,11,02,20,4.30
2019,10,11,02,21,4.30
2019,10,11,02,22,4.30
2019,10,11,02,23,4.30
2019,10,11,02,24,4.30
2019,10,11,02,25,4.40
2019,10,11,02,26,4.40
2019,10,11,02,27,4.50
2019,10,11,02,28,4.50
2019,10,11,02,29,4.60
2019,10,11,02,30,4.60
2019,10,11,02,31,4.60
2019,10,11,02,32,4.60
2019,10,11,02,33,4.60
2019,10,11,02,34,4.70
2019,10,11,02,35,4.70
2019,10,11,02,36,4.80
2019,10,11,02,37,4.80
2019,10,11,02,38,4.80
2019,10,11,02,39,4.90
2019,10,11,02,40,4.90
2019,10,11,02,41,5.00
2019,10,11,02,42,5.00
2019,10,11,02,43,5.10
2019,10,11,02,44,5.10
2019,10,11,02,45,5.10
2019,10,11,02,46,5.10
2019,10,11,02,47,5.10
2019,10,11,02,48,5.10
2019,10,11,02,49,5.10
2019,10,11,02,50,5.10
2019,10,11,02,51,5.10
2019,10,11,02,52,5.20
2019,10,11,02,53,5.20
2019,10,11,02,54,5.20
2019,10,11,02,55,5.10
2019,10,11,02,56,5.10
2019,10,11,02,57,5.10
2019,10,11,02,58,5.10
2019,10,11,02,59,5.00
2019,10,11,03,00,5.00
2019,10,11,03,01,5.00
2019,10,11,03,02,5.00
2019,10,11,03,03,5.00
2019,10,11,03,04,5.00
2019,10,11,03,05,5.00
2019,10,11,03,06,5.10
2019,10,11,03,07,5.10
2019,10,11,03,08,5.00
2019,10,11,03,09,5.00
2019,10,11,03,10,5.00
2019,10,11,03,11,5.10
2019,10,11,03,12,5.10
2019,10,11,03,13,5.10
2019,10,11,03,14,5.10
2019,10,11,03,15,5.10
2019,10,11,03,16,5.10
2019,10,11,03,17,5.10
2019,10,11,03,18,5.10
2019,10,11,03,19,5.00
2019,10,11,03,20,5.00
2019,10,11,03,21,4.90
2019,10,11,03,22,4.90
2019,10,11,03,23,4.90
2019,10,11,03,24,4.80
2019,10,11,03,25,4.80
2019,10,11,03,26,4.80
2019,10,11,03,27,4.80
2019,10,11,03,28,4.80
2019,10,11,03,29,4.80
2019,10,11,03,30,4.80
2019,10,11,03,31,4.80
2019,10,11,03,32,4.90
2019,10,11,03,33,4.90
2019,10,11,03,34,4.90
2019,10,11,03,35,4.90
2019,10,11,03,36,4.90
2019,10,11,03,37,4.90
2019,10,11,03,38,5.00
2019,10,11,03,39,5.00
2019,10,11,03,40,5.00
2019,10,11,03,41,5.00
2019,10,11,03,42,5.00
2019,10,11,03,43,5.00
2019,10,11,03,44,5.00
2019,10,11,03,45,5.00
2019,10,11,03,46,5.00
2019,10,11,03,47,5.00
2019,10,11,03,48,5.00
2019,10,11,03,49,5.00
2019,10,11,03,50,5.00
2019,10,11,03,51,5.00
2019,10,11,03,52,5.00
2019,10,11,03,53,5.00
2019,10,11,03,54,5.00
2019,10,11,03,55,5.00
2019,10,11,03,56,5.00
2019,10,11,03,57,5.00
2019,10,11,03,58,5.00
2019,10,11,03,59,5.00
2019,10,11,04,00,4.90
2019,10,11,04,01,4.90
2019,10,11,04,02,4.90
2019,10,11,04,03,4.90
2019,10,11,04,04,4.90
2019,10,11,04,05,4.90
2019,10,11,04,06,4.90
2019,10,11,04,07,4.90
2019,10,11,04,08,4.90
2019,10,11,04,09,5.00
2019,10,11,04,10,5.00
2019,10,11,04,11,5.00
2019,10,11,04,12,5.00
2019,10,11,04,13,5.00
2019,10,11,04,14,5.00
2019,10,11,04,15,4.90
2019,10,11,04,16,4.90
2019,10,11,04,17,4.80
2019,10,11,04,18,4.80
2019,10,11,04,19,4.80
2019,10,11,04,20,4.80
2019,10,11,04,21,4.80
2019,10,11,04,22,4.80
2019,10,11,04,23,4.70
2019,10,11,04,24,4.70
2019,10,11,04,25,4.70
2019,10,11,04,26,4.70
2019,10,11,04,27,4.70
2019,10,11,04,28,4.60
2019,10,11,04,29,4.60
2019,10,11,04,30,4.60
2019,10,11,04,31,4.60
2019,10,11,04,32,4.50
2019,10,11,04,33,4.50
2019,10,11,04,34,4.40
2019,10,11,04,35,4.40
2019,10,11,04,36,4.40
2019,10,11,04,37,4.30
2019,10,11,04,38,4.30
2019,10,11,04,39,4.30
2019,10,11,04,40,4.20
2019,10,11,04,41,4.20
2019,10,11,04,42,4.10
2019,10,11,04,43,4.10
2019,10,11,04,44,4.10
2019,10,11,04,45,4.00
2019,10,11,04,46,4.00
2019,10,11,04,47,3.90
2019,10,11,04,48,3.90
2019,10,11,04,49,3.90
2019,10,11,04,50,3.90
2019,10,11,04,51,4.10
2019,10,11,04,52,4.20
2019,10,11,04,53,4.30
2019,10,11,04,54,4.40
2019,10,11,04,55,4.40
2019,10,11,04,56,4.40
2019,10,11,04,57,4.50
2019,10,11,04,58,4.50
2019,10,11,04,59,4.50
2019,10,11,05,00,4.50
2019,10,11,05,01,4.60
2019,10,11,05,02,4.60
2019,10,11,05,03,4.60
2019,10,11,05,04,4.70
2019,10,11,05,05,4.70
2019,10,11,05,06,4.80
2019,10,11,05,07,4.80
2019,10,11,05,08,4.90
2019,10,11,05,09,4.90
2019,10,11,05,10,4.90
2019,10,11,05,11,4.90
2019,10,11,05,12,4.90
2019,10,11,05,13,4.90
2019,10,11,05,14,4.90
2019,10,11,05,15,4.90
2019,10,11,05,16,4.90
2019,10,11,05,17,4.90
2019,10,11,05,18,4.90
2019,10,11,05,19,5.00
2019,10,11,05,20,5.00
2019,10,11,05,21,5.10
2019,10,11,05,22,5.10
2019,10,11,05,23,5.20
2019,10,11,05,24,5.30
2019,10,11,05,25,5.40
2019,10,11,05,26,5.40
2019,10,11,05,27,5.40
2019,10,11,05,28,5.40
2019,10,11,05,29,5.40
2019,10,11,05,30,5.50
2019,10,11,05,31,5.50
2019,10,11,05,32,5.50
2019,10,11,05,33,5.50
2019,10,11,05,34,5.50
2019,10,11,05,35,5.60
2019,10,11,05,36,5.60
2019,10,11,05,37,5.60
2019,10,11,05,38,5.50
2019,10,11,05,39,5.50
2019,10,11,05,40,5.40
2019,10,11,05,41,5.40
2019,10,11,05,42,5.40
2019,10,11,05,43,5.40
2019,10,11,05,44,5.40
2019,10,11,05,45,5.40
2019,10,11,05,46,5.40
2019,10,11,05,47,5.40
2019,10,11,05,48,5.40
2019,10,11,05,49,5.40
2019,10,11,05,50,5.40
2019,10,11,05,51,5.50
2019,10,11,05,52,5.40
2019,10,11,05,53,5.40
2019,10,11,05,54,5.40
2019,10,11,05,55,5.40
2019,10,11,05,56,5.40
2019,10,11,05,57,5.30
2019,10,11,05,58,5.30
2019,10,11,05,59,5.30
2019,10,11,06,00,5.30
2019,10,11,06,01,5.30
2019,10,11,06,02,5.30
2019,10,11,06,03,5.30
2019,10,11,06,04,5.30
2019,10,11,06,05,5.30
2019,10,11,06,06,5.40
2019,10,11,06,07,5.40
2019,10,11,06,08,5.40
2019,10,11,06,09,5.40
2019,10,11,06,10,5.30
2019,10,11,06,11,5.30
2019,10,11,06,12,5.30
2019,10,11,06,13,5.30
2019,10,11,06,14,5.30
2019,10,11,06,15,5.30
2019,10,11,06,16,5.20
2019,10,11,06,17,5.20
2019,10,11,06,18,5.20
2019,10,11,06,19,5.20
2019,10,11,06,20,5.20
2019,10,11,06,21,5.10
2019,10,11,06,22,5.10
2019,10,11,06,23,5.10
2019,10,11,06,24,5.00
2019,10,11,06,25,4.90
2019,10,11,06,26,4.90
2019,10,11,06,27,4.80
2019,10,11,06,28,4.80
2019,10,11,06,29,4.80
2019,10,11,06,30,4.80
2019,10,11,06,31,4.70
2019,10,11,06,32,4.70
2019,10,11,06,33,4.70
2019,10,11,06,34,4.70
2019,10,11,06,35,4.70
2019,10,11,06,36,4.60
2019,10,11,06,37,4.60
2019,10,11,06,38,4.60
2019,10,11,06,39,4.60
2019,10,11,06,40,4.60
2019,10,11,06,41,4.60
2019,10,11,06,42,4.60
2019,10,11,06,43,4.60
2019,10,11,06,44,4.60
2019,10,11,06,45,4.70
2019,10,11,06,46,4.70
2019,10,11,06,47,4.70
2019,10,11,06,48,4.70
2019,10,11,06,49,4.70
2019,10,11,06,50,4.70
2019,10,11,06,51,4.70
2019,10,11,06,52,4.70
2019,10,11,06,53,4.70
2019,10,11,06,54,4.70
2019,10,11,06,55,4.70
2019,10,11,06,56,4.70
2019,10,11,06,57,4.70
2019,10,11,06,58,4.60
2019,10,11,06,59,4.60
2019,10,11,07,00,4.60
2019,10,11,07,01,4.60
2019,10,11,07,02,4.70
2019,10,11,07,03,4.70
2019,10,11,07,04,4.60
2019,10,11,07,05,4.60
2019,10,11,07,06,4.60
2019,10,11,07,07,4.60
2019,10,11,07,08,4.70
2019,10,11,07,09,4.70
2019,10,11,07,10,4.70
2019,10,11,07,11,4.80
2019,10,11,07,12,4.80
2019,10,11,07,13,4.80
2019,10,11,07,14,4.80
2019,10,11,07,15,4.80
2019,10,11,07,16,4.80
2019,10,11,07,17,4.80
2019,10,11,07,18,4.70
2019,10,11,07,19,4.70
2019,10,11,07,20,4.70
2019,10,11,07,21,4.70
2019,10,11,07,22,4.70
2019,10,11,07,23,4.70
2019,10,11,07,24,4.70
2019,10,11,07,25,4.60
2019,10,11,07,26,4.60
2019,10,11,07,27,4.60
2019,10,11,07,28,4.60
2019,10,11,07,29,4.60
2019,10,11,07,30,4.50
2019,10,11,07,31,4.50
2019,10,11,07,32,4.50
2019,10,11,07,33,4.50
2019,10,11,07,34,4.50
2019,10,11,07,35,4.50
2019,10,11,07,36,4.60
2019,10,11,07,37,4.60
2019,10,11,07,38,4.60
2019,10,11,07,39,4.60
2019,10,11,07,40,4.70
2019,10,11,07,41,4.70
2019,10,11,07,42,4.80
2019,10,11,07,43,4.90
2019,10,11,07,44,4.90
2019,10,11,07,45,5.00
2019,10,11,07,46,5.10
2019,10,11,07,47,5.20
2019,10,11,07,48,5.30
2019,10,11,07,49,5.40
2019,10,11,07,50,5.50
2019,10,11,07,51,5.60
2019,10,11,07,52,5.80
2019,10,11,07,53,5.90
2019,10,11,07,54,6.00
2019,10,11,07,55,6.20
2019,10,11,07,56,6.20
2019,10,11,07,57,6.30
2019,10,11,07,58,6.30
2019,10,11,07,59,6.30
2019,10,11,08,00,6.20
2019,10,11,08,01,6.20
2019,10,11,08,02,6.20
2019,10,11,08,03,6.20
2019,10,11,08,04,6.20
2019,10,11,08,05,6.20
2019,10,11,08,06,6.20
2019,10,11,08,07,6.20
2019,10,11,08,08,6.20
2019,10,11,08,09,6.20
2019,10,11,08,10,6.20
2019,10,11,08,11,6.20
2019,10,11,08,12,6.20
2019,10,11,08,13,6.30
2019,10,11,08,14,6.30
2019,10,11,08,15,6.40
2019,10,11,08,16,6.50
2019,10,11,08,17,6.60
2019,10,11,08,18,6.60
2019,10,11,08,19,6.70
2019,10,11,08,20,6.80
2019,10,11,08,21,6.90
2019,10,11,08,22,6.90
2019,10,11,08,23,7.00
2019,10,11,08,24,7.00
2019,10,11,08,25,7.10
2019,10,11,08,26,7.10
2019,10,11,08,27,7.10
2019,10,11,08,28,7.20
2019,10,11,08,29,7.20
2019,10,11,08,30,7.20
2019,10,11,08,31,7.30
2019,10,11,08,32,7.30
2019,10,11,08,33,7.30
2019,10,11,08,34,7.30
2019,10,11,08,35,7.30
2019,10,11,08,36,7.30
2019,10,11,08,37,7.30
2019,10,11,08,38,7.30
2019,10,11,08,39,7.30
2019,10,11,08,40,7.30
2019,10,11,08,41,7.30
2019,10,11,08,42,7.30
2019,10,11,08,43,7.40
2019,10,11,08,44,7.30
2019,10,11,08,45,7.30
2019,10,11,08,46,7.30
2019,10,11,08,47,7.30
2019,10,11,08,48,7.30
2019,10,11,08,49,7.40
2019,10,11,08,50,7.40
2019,10,11,08,51,7.40
2019,10,11,08,52,7.40
2019,10,11,08,53,7.40
2019,10,11,08,54,7.40
2019,10,11,08,55,7.40
2019,10,11,08,56,7.50
2019,10,11,08,57,7.50
2019,10,11,08,58,7.60
2019,10,11,08,59,7.60
2019,10,11,09,00,7.70
2019,10,11,09,01,7.80
2019,10,11,09,02,7.80
2019,10,11,09,03,7.90
2019,10,11,09,04,8.00
2019,10,11,09,05,8.00
2019,10,11,09,06,8.10
2019,10,11,09,07,8.10
2019,10,11,09,08,8.20
2019,10,11,09,09,8.20
2019,10,11,09,10,8.30
2019,10,11,09,11,8.40
2019,10,11,09,12,8.40
2019,10,11,09,13,8.50
2019,10,11,09,14,8.60
2019,10,11,09,15,8.70
2019,10,11,09,16,8.80
2019,10,11,09,17,8.90
2019,10,11,09,18,9.00
2019,10,11,09,19,9.00
2019,10,11,09,20,9.10
2019,10,11,09,21,9.20
2019,10,11,09,22,9.30
2019,10,11,09,23,9.40
2019,10,11,09,24,9.50
2019,10,11,09,25,9.70
2019,10,11,09,26,9.80
2019,10,11,09,27,9.80
2019,10,11,09,28,9.90
2019,10,11,09,29,9.90
2019,10,11,09,30,10.00
2019,10,11,09,31,10.00
2019,10,11,09,32,10.10
2019,10,11,09,33,10.10
2019,10,11,09,34,10.10
2019,10,11,09,35,10.20
2019,10,11,09,36,10.30
2019,10,11,09,37,10.30
2019,10,11,09,38,10.40
2019,10,11,09,39,10.50
2019,10,11,09,40,10.60
2019,10,11,09,41,10.70
2019,10,11,09,42,10.70
2019,10,11,09,43,10.80
2019,10,11,09,44,10.80
2019,10,11,09,45,10.90
2019,10,11,09,46,10.90
2019,10,11,09,47,10.90
2019,10,11,09,48,11.00
2019,10,11,09,49,11.00
2019,10,11,09,50,11.00
2019,10,11,09,51,11.00
2019,10,11,09,52,11.00
2019,10,11,09,53,11.00
2019,10,11,09,54,11.00
2019,10,11,09,55,11.00
2019,10,11,09,56,11.00
2019,10,11,09,57,11.00
2019,10,11,09,58,11.10
2019,10,11,09,59,11.10
2019,10,11,10,00,11.10
2019,10,11,10,01,11.10
2019,10,11,10,02,11.00
2019,10,11,10,03,11.10
2019,10,11,10,04,11.10
2019,10,11,10,05,11.10
2019,10,11,10,06,11.10
2019,10,11,10,07,11.10
2019,10,11,10,08,11.20
2019,10,11,10,09,11.20
2019,10,11,10,10,11.30
2019,10,11,10,11,11.40
2019,10,11,10,12,11.50
2019,10,11,10,13,11.50
2019,10,11,10,14,11.60
2019,10,11,10,15,11.60
2019,10,11,10,16,11.60
2019,10,11,10,17,11.60
2019,10,11,10,18,11.60
2019,10,11,10,19,11.60
2019,10,11,10,20,11.60
2019,10,11,10,21,11.60
2019,10,11,10,22,11.60
2019,10,11,10,23,11.60
2019,10,11,10,24,11.60
2019,10,11,10,25,11.60
2019,10,11,10,26,11.70
2019,10,11,10,27,11.70
2019,10,11,10,28,11.70
2019,10,11,10,29,11.80
2019,10,11,10,30,11.80
2019,10,11,10,31,11.80
2019,10,11,10,32,11.80
2019,10,11,10,33,11.80
2019,10,11,10,34,11.90
2019,10,11,10,35,11.90
2019,10,11,10,36,11.90
2019,10,11,10,37,11.90
2019,10,11,10,38,11.90
2019,10,11,10,39,12.00
2019,10,11,10,40,12.10
2019,10,11,10,41,12.10
2019,10,11,10,42,12.10
2019,10,11,10,43,12.10
2019,10,11,10,44,12.20
2019,10,11,10,45,12.20
2019,10,11,10,46,12.20
2019,10,11,10,47,12.30
2019,10,11,10,48,12.30
2019,10,11,10,49,12.30
2019,10,11,10,50,12.30
2019,10,11,10,51,12.30
2019,10,11,10,52,12.40
2019,10,11,10,53,12.40
2019,10,11,10,54,12.40
2019,10,11,10,55,12.50
2019,10,11,10,56,12.50
2019,10,11,10,57,12.50
2019,10,11,10,58,12.50
2019,10,11,10,59,12.40
2019,10,11,11,00,12.40
2019,10,11,11,01,12.40
2019,10,11,11,02,12.50
2019,10,11,11,03,12.50
2019,10,11,11,04,12.50
2019,10,11,11,05,12.60
2019,10,11,11,06,12.70
2019,10,11,11,07,12.70
2019,10,11,11,08,12.70
2019,10,11,11,09,12.80
2019,10,11,11,10,12.80
2019,10,11,11,11,12.70
2019,10,11,11,12,12.80
2019,10,11,11,13,12.80
2019,10,11,11,14,12.80
2019,10,11,11,15,12.80
2019,10,11,11,16,12.90
2019,10,11,11,17,12.90
2019,10,11,11,18,12.90
2019,10,11,11,19,12.90
2019,10,11,11,20,12.90
2019,10,11,11,21,13.00
2019,10,11,11,22,13.10
2019,10,11,11,23,13.00
2019,10,11,11,24,13.00
2019,10,11,11,25,13.00
2019,10,11,11,26,13.10
2019,10,11,11,27,13.20
2019,10,11,11,28,13.20
2019,10,11,11,29,13.10
2019,10,11,11,30,13.00
2019,10,11,11,31,13.00
2019,10,11,11,32,12.90
2019,10,11,11,33,12.90
2019,10,11,11,34,12.90
2019,10,11,11,35,12.90
2019,10,11,11,36,12.90
2019,10,11,11,37,12.90
2019,10,11,11,38,12.90
2019,10,11,11,39,13.00
2019,10,11,11,40,13.10
2019,10,11,11,41,13.10
2019,10,11,11,42,13.20
2019,10,11,11,43,13.20
2019,10,11,11,44,13.20
2019,10,11,11,45,13.20
2019,10,11,11,46,13.30
2019,10,11,11,47,13.20
2019,10,11,11,48,13.20
2019,10,11,11,49,13.20
2019,10,11,11,50,13.30
2019,10,11,11,51,13.30
2019,10,11,11,52,13.30
2019,10,11,11,53,13.20
2019,10,11,11,54,13.30
2019,10,11,11,55,13.20
2019,10,11,11,56,13.20
2019,10,11,11,57,13.20
2019,10,11,11,58,13.20
2019,10,11,11,59,13.20
2019,10,11,12,00,13.20
2019,10,11,12,01,13.20
2019,10,11,12,02,13.10
2019,10,11,12,03,13.10
2019,10,11,12,04,13.10
2019,10,11,12,05,13.10
2019,10,11,12,06,13.10
2019,10,11,12,07,13.20
2019,10,11,12,08,13.30
2019,10,11,12,09,13.30
2019,10,11,12,10,13.20
2019,10,11,12,11,13.20
2019,10,11,12,12,13.20
2019,10,11,12,13,13.30
2019,10,11,12,14,13.40
2019,10,11,12,15,13.40
2019,10,11,12,16,13.40
2019,10,11,12,17,13.40
2019,10,11,12,18,13.40
2019,10,11,12,19,13.50
2019,10,11,12,20,13.60
2019,10,11,12,21,13.60
2019,10,11,12,22,13.50
2019,10,11,12,23,13.50
2019,10,11,12,24,13.50
2019,10,11,12,25,13.60
2019,10,11,12,26,13.60
2019,10,11,12,27,13.70
2019,10,11,12,28,13.70
2019,10,11,12,29,13.70
2019,10,11,12,30,13.70
2019,10,11,12,31,13.70
2019,10,11,12,32,13.70
2019,10,11,12,33,13.70
2019,10,11,12,34,13.70
2019,10,11,12,35,13.80
2019,10,11,12,36,13.80
2019,10,11,12,37,13.80
2019,10,11,12,38,13.90
2019,10,11,12,39,13.90
2019,10,11,12,40,13.90
2019,10,11,12,41,13.90
2019,10,11,12,42,13.90
2019,10,11,12,43,13.80
2019,10,11,12,44,13.80
2019,10,11,12,45,13.90
2019,10,11,12,46,13.90
2019,10,11,12,47,13.90
2019,10,11,12,48,13.80
2019,10,11,12,49,13.70
2019,10,11,12,50,13.70
2019,10,11,12,51,13.70
2019,10,11,12,52,13.70
2019,10,11,12,53,13.80
2019,10,11,12,54,13.80
2019,10,11,12,55,13.80
2019,10,11,12,56,13.80
2019,10,11,12,57,13.90
2019,10,11,12,58,14.00
2019,10,11,12,59,14.00
2019,10,11,13,00,14.00
2019,10,11,13,01,13.90
2019,10,11,13,02,13.90
2019,10,11,13,03,13.90
2019,10,11,13,04,13.90
2019,10,11,13,05,13.90
2019,10,11,13,06,13.90
2019,10,11,13,07,13.90
2019,10,11,13,08,13.90
2019,10,11,13,09,13.90
2019,10,11,13,10,14.00
2019,10,11,13,11,14.10
2019,10,11,13,12,14.20
2019,10,11,13,13,14.20
2019,10,11,13,14,14.20
2019,10,11,13,15,14.20
2019,10,11,13,16,14.30
2019,10,11,13,17,14.30
2019,10,11,13,18,14.20
2019,10,11,13,19,14.20
2019,10,11,13,20,14.20
2019,10,11,13,21,14.20
2019,10,11,13,22,14.20
2019,10,11,13,23,14.20
2019,10,11,13,24,14.30
2019,10,11,13,25,14.40
2019,10,11,13,26,14.50
2019,10,11,13,27,14.50
2019,10,11,13,28,14.60
2019,10,11,13,29,14.70
2019,10,11,13,30,14.60
2019,10,11,13,31,14.60
2019,10,11,13,32,14.50
2019,10,11,13,33,14.50
2019,10,11,13,34,14.50
2019,10,11,13,35,14.50
2019,10,11,13,36,14.40
2019,10,11,13,37,14.40
2019,10,11,13,38,14.50
2019,10,11,13,39,14.50
2019,10,11,13,40,14.60
2019,10,11,13,41,14.60
2019,10,11,13,42,14.70
2019,10,11,13,43,14.70
2019,10,11,13,44,14.70
2019,10,11,13,45,14.70
2019,10,11,13,46,14.70
2019,10,11,13,47,14.70
2019,10,11,13,48,14.70
2019,10,11,13,49,14.70
2019,10,11,13,50,14.70
2019,10,11,13,51,14.70
2019,10,11,13,52,14.70
2019,10,11,13,53,14.80
2019,10,11,13,54,14.90
2019,10,11,13,55,14.80
2019,10,11,13,56,14.80
2019,10,11,13,57,14.90
2019,10,11,13,58,14.90
2019,10,11,13,59,14.80
2019,10,11,14,00,14.80
2019,10,11,14,01,14.80
2019,10,11,14,02,14.80
2019,10,11,14,03,14.90
2019,10,11,14,04,14.90
2019,10,11,14,05,15.00
2019,10,11,14,06,15.00
2019,10,11,14,07,14.90
2019,10,11,14,08,14.80
2019,10,11,14,09,14.80
2019,10,11,14,10,14.80
2019,10,11,14,11,14.90
2019,10,11,14,12,14.90
2019,10,11,14,13,15.00
2019,10,11,14,14,15.00
2019,10,11,14,15,14.90
2019,10,11,14,16,15.00
2019,10,11,14,17,15.10
2019,10,11,14,18,15.10
2019,10,11,14,19,15.20
2019,10,11,14,20,15.30
2019,10,11,14,21,15.20
2019,10,11,14,22,15.20
2019,10,11,14,23,15.30
2019,10,11,14,24,15.30
2019,10,11,14,25,15.20
2019,10,11,14,26,15.20
2019,10,11,14,27,15.20
2019,10,11,14,28,15.20
2019,10,11,14,29,15.20
2019,10,11,14,30,15.20
2019,10,11,14,31,15.20
2019,10,11,14,32,15.30
2019,10,11,14,33,15.30
2019,10,11,14,34,15.30
2019,10,11,14,35,15.40
2019,10,11,14,36,15.40
2019,10,11,14,37,15.40
2019,10,11,14,38,15.40
2019,10,11,14,39,15.30
2019,10,11,14,40,15.30
2019,10,11,14,41,15.20
2019,10,11,14,42,15.20
2019,10,11,14,43,15.20
2019,10,11,14,44,15.30
2019,10,11,14,45,15.30
2019,10,11,14,46,15.30
2019,10,11,14,47,15.30
2019,10,11,14,48,15.40
2019,10,11,14,49,15.40
2019,10,11,14,50,15.40
2019,10,11,14,51,15.30
2019,10,11,14,52,15.30
2019,10,11,14,53,15.30
2019,10,11,14,54,15.30
2019,10,11,14,55,15.30
2019,10,11,14,56,15.30
2019,10,11,14,57,15.40
2019,10,11,14,58,15.40
2019,10,11,14,59,15.50
2019,10,11,15,00,15.60
2019,10,11,15,01,15.60
2019,10,11,15,02,15.60
2019,10,11,15,03,15.60
2019,10,11,15,04,15.50
2019,10,11,15,05,15.40
2019,10,11,15,06,15.40
2019,10,11,15,07,15.50
2019,10,11,15,08,15.40
2019,10,11,15,09,15.40
2019,10,11,15,10,15.40
2019,10,11,15,11,15.50
2019,10,11,15,12,15.50
2019,10,11,15,13,15.50
2019,10,11,15,14,15.50
2019,10,11,15,15,15.50
2019,10,11,15,16,15.60
2019,10,11,15,17,15.50
2019,10,11,15,18,15.50
2019,10,11,15,19,15.50
2019,10,11,15,20,15.50
2019,10,11,15,21,15.60
2019,10,11,15,22,15.60
2019,10,11,15,23,15.60
2019,10,11,15,24,15.60
2019,10,11,15,25,15.60
2019,10,11,15,26,15.60
2019,10,11,15,27,15.70
2019,10,11,15,28,15.70
2019,10,11,15,29,15.70
2019,10,11,15,30,15.80
2019,10,11,15,31,15.70
2019,10,11,15,32,15.70
2019,10,11,15,33,15.70
2019,10,11,15,34,15.70
2019,10,11,15,35,15.70
2019,10,11,15,36,15.70
2019,10,11,15,37,15.70
2019,10,11,15,38,15.70
2019,10,11,15,39,15.60
2019,10,11,15,40,15.60
2019,10,11,15,41,15.60
2019,10,11,15,42,15.50
2019,10,11,15,43,15.40
2019,10,11,15,44,15.30
2019,10,11,15,45,15.40
2019,10,11,15,46,15.50
2019,10,11,15,47,15.50
2019,10,11,15,48,15.60
2019,10,11,15,49,15.50
2019,10,11,15,50,15.40
2019,10,11,15,51,15.30
2019,10,11,15,52,15.20
2019,10,11,15,53,15.10
2019,10,11,15,54,15.10
2019,10,11,15,55,15.10
2019,10,11,15,56,15.10
2019,10,11,15,57,15.10
2019,10,11,15,58,15.10
2019,10,11,15,59,15.00
2019,10,11,16,00,15.00
2019,10,11,16,01,15.00
2019,10,11,16,02,15.00
2019,10,11,16,03,15.00
2019,10,11,16,04,15.00
2019,10,11,16,05,15.00
2019,10,11,16,06,14.90
2019,10,11,16,07,14.80
2019,10,11,16,08,14.80
2019,10,11,16,09,14.70
2019,10,11,16,10,14.80
2019,10,11,16,11,14.80
2019,10,11,16,12,14.80
2019,10,11,16,13,14.90
2019,10,11,16,14,14.90
2019,10,11,16,15,14.90
2019,10,11,16,16,14.90
2019,10,11,16,17,14.90
2019,10,11,16,18,14.80
2019,10,11,16,19,14.80
2019,10,11,16,20,14.70
2019,10,11,16,21,14.70
2019,10,11,16,22,14.80
2019,10,11,16,23,14.80
2019,10,11,16,24,14.80
2019,10,11,16,25,14.90
2019,10,11,16,26,14.90
2019,10,11,16,27,15.00
2019,10,11,16,28,15.00
2019,10,11,16,29,15.00
2019,10,11,16,30,14.80
2019,10,11,16,31,14.70
2019,10,11,16,32,14.60
2019,10,11,16,33,14.60
2019,10,11,16,34,14.50
2019,10,11,16,35,14.40
2019,10,11,16,36,14.30
2019,10,11,16,37,14.20
2019,10,11,16,38,14.10
2019,10,11,16,39,14.00
2019,10,11,16,40,14.00
2019,10,11,16,41,13.90
2019,10,11,16,42,13.90
2019,10,11,16,43,13.80
2019,10,11,16,44,13.80
2019,10,11,16,45,13.80
2019,10,11,16,46,13.80
2019,10,11,16,47,13.80
2019,10,11,16,48,13.80
2019,10,11,16,49,13.80
2019,10,11,16,50,13.90
2019,10,11,16,51,13.90
2019,10,11,16,52,13.90
2019,10,11,16,53,13.90
2019,10,11,16,54,13.90
2019,10,11,16,55,13.90
2019,10,11,16,56,13.80
2019,10,11,16,57,13.70
2019,10,11,16,58,13.70
2019,10,11,16,59,13.70
2019,10,11,17,00,13.60
2019,10,11,17,01,13.60
2019,10,11,17,02,13.60
2019,10,11,17,03,13.60
2019,10,11,17,04,13.50
2019,10,11,17,05,13.50
2019,10,11,17,06,13.40
2019,10,11,17,07,13.40
2019,10,11,17,08,13.30
2019,10,11,17,09,13.20
2019,10,11,17,10,13.20
2019,10,11,17,11,13.10
2019,10,11,17,12,13.00
2019,10,11,17,13,13.00
2019,10,11,17,14,12.90
2019,10,11,17,15,12.90
2019,10,11,17,16,12.90
2019,10,11,17,17,12.90
2019,10,11,17,18,12.90
2019,10,11,17,19,12.80
2019,10,11,17,20,12.80
2019,10,11,17,21,12.80
2019,10,11,17,22,12.70
2019,10,11,17,23,12.70
2019,10,11,17,24,12.70
2019,10,11,17,25,12.60
2019,10,11,17,26,12.60
2019,10,11,17,27,12.60
2019,10,11,17,28,12.50
2019,10,11,17,29,12.40
2019,10,11,17,30,12.40
2019,10,11,17,31,12.40
2019,10,11,17,32,12.30
2019,10,11,17,33,12.30
2019,10,11,17,34,12.30
2019,10,11,17,35,12.30
2019,10,11,17,36,12.20
2019,10,11,17,37,12.20
2019,10,11,17,38,12.20
2019,10,11,17,39,12.20
2019,10,11,17,40,12.10
2019,10,11,17,41,12.10
2019,10,11,17,42,12.10
2019,10,11,17,43,12.10
2019,10,11,17,44,12.20